TimeCDT,TemperatureF,Dew PointF,Humidity,Sea Level PressureIn,VisibilityMPH,Wind Direction,Wind SpeedMPH,Gust SpeedMPH,PrecipitationIn,Events,Conditions,WindDirDegrees,DateUTC
12:15 AM,72.9,64.0,74,29.96,10.0,SSE,13.8,18.4,N/A,,Clear,160,2013-05-26 05:15:00
12:35 AM,73.0,64.4,74,29.94,10.0,SSE,15.0,-,N/A,,Clear,160,2013-05-26 05:35:00
12:55 AM,73.0,64.6,75,29.96,10.0,South,15.0,23.0,N/A,,Clear,180,2013-05-26 05:55:00
1:15 AM,72.7,64.8,76,29.96,10.0,South,16.1,21.9,N/A,,Clear,180,2013-05-26 06:15:00
1:35 AM,72.5,64.8,77,29.94,10.0,South,16.1,25.3,N/A,,Clear,180,2013-05-26 06:35:00
1:55 AM,71.8,64.6,78,29.93,10.0,South,15.0,24.2,N/A,,Clear,170,2013-05-26 06:55:00
2:15 AM,71.2,64.8,80,29.92,10.0,South,15.0,21.9,N/A,,Clear,170,2013-05-26 07:15:00
2:35 AM,71.1,64.8,80,29.90,10.0,South,17.3,24.2,N/A,,Clear,170,2013-05-26 07:35:00
2:55 AM,70.9,64.9,81,29.88,10.0,SSE,17.3,25.3,N/A,,Clear,160,2013-05-26 07:55:00
3:15 AM,70.7,64.9,82,29.88,10.0,SSE,19.6,24.2,N/A,,Clear,160,2013-05-26 08:15:00
3:35 AM,70.5,64.8,82,29.88,10.0,SSE,21.9,27.6,N/A,,Clear,160,2013-05-26 08:35:00
3:55 AM,70.7,64.6,81,29.90,10.0,South,16.1,25.3,N/A,,Scattered Clouds,180,2013-05-26 08:55:00
4:15 AM,70.3,64.6,82,29.91,10.0,South,12.7,19.6,N/A,,Scattered Clouds,180,2013-05-26 09:15:00
4:35 AM,70.3,64.6,82,29.92,10.0,South,5.8,-,N/A,,Mostly Cloudy,180,2013-05-26 09:35:00
4:55 AM,69.8,64.4,83,29.91,10.0,SSE,8.1,-,N/A,,Mostly Cloudy,160,2013-05-26 09:55:00
5:15 AM,69.3,64.4,84,29.90,10.0,SSE,10.4,-,N/A,,Clear,160,2013-05-26 10:15:00
5:35 AM,69.4,64.4,84,29.91,10.0,SSE,8.1,-,N/A,,Mostly Cloudy,160,2013-05-26 10:35:00
5:55 AM,69.8,64.4,83,29.91,10.0,SSE,6.9,-,N/A,,Overcast,160,2013-05-26 10:55:00
6:15 AM,69.8,64.4,83,29.92,10.0,South,11.5,-,N/A,,Overcast,170,2013-05-26 11:15:00
6:35 AM,69.8,64.4,83,29.91,10.0,South,10.4,17.3,N/A,,Overcast,170,2013-05-26 11:35:00
6:55 AM,69.4,64.0,83,29.90,10.0,SSE,12.7,17.3,N/A,,Overcast,160,2013-05-26 11:55:00
7:15 AM,69.4,64.0,83,29.90,10.0,SSE,11.5,-,N/A,,Overcast,160,2013-05-26 12:15:00
7:35 AM,69.8,64.4,83,29.88,10.0,SSE,16.1,20.7,N/A,,Mostly Cloudy,160,2013-05-26 12:35:00
7:55 AM,70.7,64.4,80,29.88,10.0,South,15.0,20.7,N/A,,Mostly Cloudy,170,2013-05-26 12:55:00
8:15 AM,70.9,64.4,80,29.90,10.0,South,16.1,24.2,N/A,,Overcast,190,2013-05-26 13:15:00
8:35 AM,71.1,64.6,80,29.90,10.0,South,13.8,23.0,N/A,,Overcast,180,2013-05-26 13:35:00
8:55 AM,71.6,64.8,79,29.89,10.0,South,13.8,23.0,N/A,,Overcast,170,2013-05-26 13:55:00
9:15 AM,72.0,64.9,78,29.90,10.0,South,15.0,20.7,N/A,,Overcast,180,2013-05-26 14:15:00
9:35 AM,72.0,64.6,77,29.90,10.0,South,15.0,23.0,N/A,,Overcast,170,2013-05-26 14:35:00
9:55 AM,72.5,64.8,77,29.92,10.0,South,16.1,23.0,N/A,,Overcast,180,2013-05-26 14:55:00
10:15 AM,71.6,64.8,79,29.92,10.0,South,10.4,23.0,N/A,,Overcast,180,2013-05-26 15:15:00
10:35 AM,72.3,65.1,78,29.93,10.0,SSE,17.3,23.0,N/A,,Overcast,160,2013-05-26 15:35:00
10:55 AM,74.5,65.3,73,29.93,10.0,South,15.0,24.2,N/A,,Overcast,170,2013-05-26 15:55:00
11:15 AM,73.4,65.3,76,29.93,10.0,SSE,16.1,20.7,N/A,,Overcast,160,2013-05-26 16:15:00
11:35 AM,74.7,65.8,74,29.92,10.0,SSE,18.4,-,N/A,,Overcast,160,2013-05-26 16:35:00
11:55 AM,75.4,66.0,73,29.92,10.0,SSE,17.3,21.9,N/A,,Overcast,160,2013-05-26 16:55:00
12:15 PM,77.2,65.8,68,29.92,10.0,SSE,16.1,-,N/A,,Overcast,160,2013-05-26 17:15:00
12:35 PM,77.9,66.0,67,29.92,10.0,SSE,16.1,-,N/A,,Overcast,160,2013-05-26 17:35:00
12:55 PM,77.5,65.5,66,29.91,10.0,South,17.3,23.0,N/A,,Overcast,170,2013-05-26 17:55:00
1:15 PM,77.4,65.3,66,29.90,10.0,South,17.3,23.0,N/A,,Overcast,170,2013-05-26 18:15:00
1:35 PM,78.3,65.3,64,29.90,10.0,SSE,18.4,24.2,N/A,,Overcast,160,2013-05-26 18:35:00
1:55 PM,78.1,65.5,65,29.90,10.0,SSE,17.3,21.9,N/A,,Overcast,160,2013-05-26 18:55:00
2:15 PM,79.0,66.0,64,29.89,10.0,SSE,17.3,21.9,N/A,,Mostly Cloudy,160,2013-05-26 19:15:00
2:35 PM,80.6,66.7,63,29.88,10.0,South,19.6,25.3,N/A,,Mostly Cloudy,170,2013-05-26 19:35:00
2:55 PM,80.1,66.4,63,29.87,10.0,South,17.3,20.7,N/A,,Mostly Cloudy,180,2013-05-26 19:55:00
3:15 PM,82.2,67.3,60,29.86,10.0,South,18.4,25.3,N/A,,Mostly Cloudy,170,2013-05-26 20:15:00
3:35 PM,82.6,67.3,60,29.85,10.0,South,17.3,27.6,N/A,,Scattered Clouds,170,2013-05-26 20:35:00
3:55 PM,83.8,67.6,58,29.84,10.0,South,21.9,28.8,N/A,,Clear,180,2013-05-26 20:55:00
4:15 PM,84.2,67.3,57,29.83,10.0,South,21.9,27.6,N/A,,Clear,170,2013-05-26 21:15:00
4:35 PM,85.1,67.3,55,29.83,10.0,South,20.7,25.3,N/A,,Clear,170,2013-05-26 21:35:00
4:55 PM,84.0,66.6,56,29.83,10.0,South,16.1,27.6,N/A,,Clear,170,2013-05-26 21:55:00
5:15 PM,85.1,67.1,55,29.83,10.0,South,17.3,26.5,N/A,,Scattered Clouds,170,2013-05-26 22:15:00
5:35 PM,84.9,67.5,56,29.83,10.0,South,20.7,26.5,N/A,,Scattered Clouds,170,2013-05-26 22:35:00
5:55 PM,85.1,67.5,55,29.82,10.0,South,15.0,24.2,N/A,,Scattered Clouds,170,2013-05-26 22:55:00
6:15 PM,84.7,67.5,56,29.82,10.0,South,17.3,25.3,N/A,,Scattered Clouds,170,2013-05-26 23:15:00
6:35 PM,84.2,66.9,56,29.82,10.0,South,17.3,25.3,N/A,,Clear,170,2013-05-26 23:35:00
6:55 PM,82.8,67.1,59,29.82,10.0,South,16.1,21.9,N/A,,Scattered Clouds,170,2013-05-26 23:55:00
7:15 PM,81.7,67.5,62,29.81,10.0,South,11.5,19.6,N/A,,Scattered Clouds,180,2013-05-27 00:15:00
7:35 PM,81.9,67.1,61,29.81,10.0,SSE,13.8,21.9,N/A,,Clear,160,2013-05-27 00:35:00
7:55 PM,80.8,67.1,63,29.81,10.0,SSE,16.1,20.7,N/A,,Clear,160,2013-05-27 00:55:00
8:15 PM,79.9,67.3,65,29.81,10.0,SSE,15.0,20.7,N/A,,Clear,160,2013-05-27 01:15:00
8:35 PM,79.0,67.3,67,29.81,10.0,SSE,15.0,21.9,N/A,,Clear,160,2013-05-27 01:35:00
8:55 PM,78.4,67.1,68,29.80,10.0,South,16.1,-,N/A,,Clear,170,2013-05-27 01:55:00
9:15 PM,77.7,67.1,70,29.80,10.0,SSE,12.7,-,N/A,,Clear,160,2013-05-27 02:15:00
9:35 PM,77.0,67.1,71,29.80,10.0,South,15.0,19.6,N/A,,Clear,170,2013-05-27 02:35:00
9:55 PM,77.0,66.7,70,29.80,10.0,SSE,12.7,19.6,N/A,,Clear,160,2013-05-27 02:55:00
10:15 PM,76.3,66.9,73,29.80,10.0,SSE,15.0,21.9,N/A,,Clear,160,2013-05-27 03:15:00
10:35 PM,76.1,66.7,73,29.80,10.0,SSE,13.8,20.7,N/A,,Clear,160,2013-05-27 03:35:00
10:55 PM,75.9,66.7,73,29.79,10.0,SSE,13.8,-,N/A,,Clear,160,2013-05-27 03:55:00
11:15 PM,75.4,66.7,74,29.78,10.0,SSE,16.1,21.9,N/A,,Clear,160,2013-05-27 04:15:00
11:35 PM,75.2,66.6,74,29.77,10.0,South,18.4,23.0,N/A,,Clear,170,2013-05-27 04:35:00
11:55 PM,74.8,66.7,76,29.78,10.0,South,15.0,21.9,N/A,,Clear,170,2013-05-27 04:55:00